When you browse on this site, cookies collect data to enhance your experience and personalize the content and advertising you see.
Visit our Privacy Policy to learn more. By continuing to use the site, you agree to this use of cookies and data.
  • In Latvia
  • List of Countries
  • For 7 days
  • Water Temperature
  • Satellite Maps
  • Weather Map
  • Weather Widgets
  • user-avatar
    Login

    Hourly Weather Jalapa

    Today, 17 June, Monday

    Time Temperature Precipitation Wind Pressure Humidity
    00:00 +17°C° 0.1 mm 0 mps 641 mmHg 92%
    01:00 +17°C° 0.1 mm 0 mps 641 mmHg 93%
    02:00 +17°C° 0.1 mm 0 mps 640 mmHg 93%
    03:00 +16°C° 0.1 mm 0 mps 640 mmHg 94%
    04:00 +16°C° 0 mm 0 mps 640 mmHg 94%
    05:00 +16°C° 0 mm 0 mps 641 mmHg 95%
    06:00 +18°C° 0 mm 1 mps 641 mmHg 95%
    07:00 +20°C° 0 mm 1 mps 642 mmHg 91%
    08:00 +22°C° 0 mm 1 mps 642 mmHg 87%
    09:00 +24°C° 0 mm 1 mps 643 mmHg 82%
    10:00 +25°C° 0.2 mm 1 mps 643 mmHg 79%
    11:00 +26°C° 0.2 mm 1 mps 643 mmHg 75%
    12:00 +27°C° 0.2 mm 1 mps 643 mmHg 71%
    13:00 +27°C° 0.3 mm 1 mps 643 mmHg 70%
    14:00 +27°C° 0.3 mm 1 mps 643 mmHg 68%
    15:00 +27°C° 0.3 mm 1 mps 642 mmHg 66%
    16:00 +26°C° 0.1 mm 1 mps 642 mmHg 73%
    17:00 +25°C° 0.1 mm 1 mps 642 mmHg 79%
    18:00 +24°C° 0.1 mm 1 mps 641 mmHg 85%
    19:00 +22°C° 0.6 mm 1 mps 641 mmHg 88%
    20:00 +21°C° 0.6 mm 1 mps 642 mmHg 90%
    21:00 +20°C° 0.6 mm 1 mps 642 mmHg 93%
    22:00 +20°C° 0.1 mm 1 mps 642 mmHg 93%
    23:00 +18°C° 0.1 mm 0 mps 642 mmHg 93%

    Tomorrow, 18 June, Tuesday

    Time Temperature Precipitation Wind Pressure Humidity
    00:00 +17°C° 0.1 mm 0 mps 642 mmHg 93%
    01:00 +17°C° 0 mm 0 mps 641 mmHg 94%
    02:00 +19°C° 0 mm 1 mps 641 mmHg 95%
    03:00 +19°C° 0 mm 1 mps 640 mmHg 96%
    04:00 +19°C° 0 mm 1 mps 641 mmHg 96%
    05:00 +19°C° 0 mm 1 mps 641 mmHg 96%
    06:00 +19°C° 0 mm 1 mps 641 mmHg 96%
    07:00 +20°C° 0 mm 1 mps 642 mmHg 92%
    08:00 +22°C° 0 mm 1 mps 643 mmHg 87%
    09:00 +23°C° 0 mm 1 mps 643 mmHg 83%
    10:00 +25°C° 0 mm 1 mps 644 mmHg 75%
    11:00 +26°C° 0 mm 1 mps 644 mmHg 68%
    12:00 +28°C° 0 mm 1 mps 644 mmHg 61%
    13:00 +28°C° 0 mm 1 mps 644 mmHg 61%
    14:00 +27°C° 0 mm 1 mps 643 mmHg 61%
    15:00 +27°C° 0 mm 1 mps 643 mmHg 61%
    16:00 +26°C° 0.1 mm 1 mps 642 mmHg 68%
    17:00 +25°C° 0.1 mm 1 mps 642 mmHg 75%
    18:00 +23°C° 0.1 mm 1 mps 641 mmHg 83%
    19:00 +22°C° 0 mm 1 mps 642 mmHg 85%
    20:00 +21°C° 0 mm 1 mps 642 mmHg 88%
    21:00 +20°C° 0 mm 1 mps 642 mmHg 90%
    22:00 +20°C° 0 mm 1 mps 642 mmHg 92%
    23:00 +19°C° 0 mm 1 mps 642 mmHg 94%

    Day after tomorrow, 19 June, Wednesday

    Time Temperature Precipitation Wind Pressure Humidity
    00:00 +19°C° 0 mm 1 mps 641 mmHg 96%
    01:00 +19°C° 0 mm 1 mps 641 mmHg 97%
    02:00 +19°C° 0 mm 1 mps 641 mmHg 97%
    03:00 +19°C° 0 mm 1 mps 641 mmHg 97%
    04:00 +19°C° 0 mm 1 mps 641 mmHg 97%
    05:00 +19°C° 0 mm 1 mps 641 mmHg 96%
    06:00 +19°C° 0 mm 1 mps 641 mmHg 96%
    07:00 +21°C° 0 mm 1 mps 642 mmHg 90%
    08:00 +22°C° 0 mm 1 mps 643 mmHg 83%
    09:00 +24°C° 0 mm 1 mps 644 mmHg 77%
    10:00 +25°C° 0.3 mm 1 mps 643 mmHg 75%
    11:00 +26°C° 0.3 mm 1 mps 643 mmHg 72%
    12:00 +27°C° 0.3 mm 1 mps 643 mmHg 70%
    13:00 +27°C° 0.4 mm 1 mps 643 mmHg 70%
    14:00 +27°C° 0.4 mm 1 mps 643 mmHg 70%
    15:00 +27°C° 0.4 mm 1 mps 642 mmHg 70%
    16:00 +26°C° 1.2 mm 1 mps 642 mmHg 76%
    17:00 +24°C° 1.2 mm 1 mps 641 mmHg 82%
    18:00 +23°C° 1.2 mm 1 mps 641 mmHg 89%
    19:00 +22°C° 0.8 mm 1 mps 641 mmHg 91%
    20:00 +21°C° 0.8 mm 1 mps 641 mmHg 93%
    21:00 +20°C° 0.8 mm 1 mps 642 mmHg 95%
    22:00 +20°C° 0.5 mm 1 mps 642 mmHg 95%
    23:00 +20°C° 0.5 mm 1 mps 641 mmHg 95%

    20 June, Thursday

    Time Temperature Precipitation Wind Pressure Humidity
    00:00 +17°C° 0.5 mm 0 mps 641 mmHg 96%
    01:00 +17°C° 0.5 mm 0 mps 641 mmHg 96%
    02:00 +17°C° 0.5 mm 0 mps 641 mmHg 95%
    03:00 +17°C° 0.5 mm 0 mps 640 mmHg 95%
    04:00 +19°C° 0 mm 1 mps 641 mmHg 96%
    05:00 +19°C° 0 mm 1 mps 641 mmHg 96%
    06:00 +19°C° 0 mm 1 mps 641 mmHg 96%
    07:00 +20°C° 0.1 mm 1 mps 641 mmHg 93%
    08:00 +22°C° 0.1 mm 1 mps 642 mmHg 89%
    09:00 +23°C° 0.1 mm 1 mps 643 mmHg 86%
    10:00 +24°C° 0.8 mm 1 mps 643 mmHg 82%
    11:00 +25°C° 0.8 mm 1 mps 643 mmHg 78%
    12:00 +27°C° 0.8 mm 1 mps 643 mmHg 74%
    13:00 +27°C° 1.1 mm 1 mps 642 mmHg 74%
    14:00 +26°C° 1.1 mm 1 mps 642 mmHg 74%
    15:00 +26°C° 1.1 mm 1 mps 642 mmHg 73%
    16:00 +25°C° 1.5 mm 1 mps 641 mmHg 79%
    17:00 +24°C° 1.5 mm 1 mps 641 mmHg 85%
    18:00 +23°C° 1.5 mm 1 mps 641 mmHg 91%
    19:00 +22°C° 1.1 mm 1 mps 641 mmHg 92%
    20:00 +21°C° 1.1 mm 1 mps 641 mmHg 93%
    21:00 +20°C° 1.1 mm 1 mps 642 mmHg 94%
    22:00 +19°C° 0.2 mm 1 mps 641 mmHg 95%
    23:00 +19°C° 0.2 mm 1 mps 641 mmHg 96%

    21 June, Friday

    Time Temperature Precipitation Wind Pressure Humidity
    00:00 +19°C° 0.2 mm 1 mps 641 mmHg 96%
    01:00 +19°C° 0 mm 1 mps 641 mmHg 96%
    02:00 +19°C° 0 mm 1 mps 640 mmHg 97%
    03:00 +19°C° 0 mm 1 mps 640 mmHg 97%
    04:00 +19°C° 0 mm 1 mps 640 mmHg 97%
    05:00 +19°C° 0 mm 1 mps 640 mmHg 97%
    06:00 +19°C° 0 mm 1 mps 641 mmHg 97%
    07:00 +20°C° 0.1 mm 1 mps 641 mmHg 93%
    08:00 +21°C° 0.1 mm 1 mps 642 mmHg 90%
    09:00 +23°C° 0.1 mm 1 mps 643 mmHg 86%
    10:00 +24°C° 0.3 mm 1 mps 643 mmHg 81%
    11:00 +25°C° 0.3 mm 1 mps 643 mmHg 76%
    12:00 +26°C° 0.3 mm 1 mps 643 mmHg 72%
    13:00 +26°C° 1 mm 1 mps 643 mmHg 74%
    14:00 +26°C° 1 mm 1 mps 642 mmHg 75%
    15:00 +26°C° 1 mm 1 mps 642 mmHg 77%
    16:00 +25°C° 1.4 mm 1 mps 642 mmHg 82%
    17:00 +24°C° 1.4 mm 1 mps 641 mmHg 87%
    18:00 +22°C° 1.4 mm 1 mps 641 mmHg 92%
    19:00 +21°C° 2.1 mm 1 mps 642 mmHg 93%
    20:00 +20°C° 2.1 mm 1 mps 642 mmHg 94%
    21:00 +19°C° 2.1 mm 1 mps 642 mmHg 96%
    22:00 +19°C° 2.4 mm 1 mps 642 mmHg 96%
    23:00 +19°C° 2.4 mm 1 mps 642 mmHg 96%

    22 June, Saturday

    Time Temperature Precipitation Wind Pressure Humidity
    00:00 +17°C° 2.4 mm 0 mps 642 mmHg 97%
    01:00 +19°C° 0.9 mm 1 mps 642 mmHg 97%
    02:00 +19°C° 0.9 mm 1 mps 641 mmHg 97%
    03:00 +19°C° 0.9 mm 1 mps 641 mmHg 97%
    04:00 +19°C° 0.2 mm 1 mps 641 mmHg 96%
    05:00 +19°C° 0.2 mm 1 mps 641 mmHg 95%
    06:00 +19°C° 0.2 mm 1 mps 641 mmHg 94%
    07:00 +20°C° 0 mm 1 mps 642 mmHg 92%
    08:00 +20°C° 0 mm 1 mps 642 mmHg 91%
    09:00 +21°C° 0 mm 1 mps 643 mmHg 89%
    10:00 +22°C° 0.6 mm 1 mps 643 mmHg 85%
    11:00 +24°C° 0.6 mm 1 mps 643 mmHg 81%
    12:00 +25°C° 0.6 mm 1 mps 643 mmHg 77%
    13:00 +24°C° 1.2 mm 1 mps 643 mmHg 82%
    14:00 +22°C° 1.2 mm 1 mps 642 mmHg 86%
    15:00 +21°C° 1.2 mm 1 mps 641 mmHg 91%
    16:00 +21°C° 0.2 mm 1 mps 641 mmHg 91%
    17:00 +20°C° 0.2 mm 1 mps 641 mmHg 91%
    18:00 +18°C° 0.2 mm 0 mps 641 mmHg 91%
    19:00 +18°C° 0.1 mm 0 mps 642 mmHg 91%
    20:00 +18°C° 0.1 mm 0 mps 642 mmHg 91%
    21:00 +19°C° 0.1 mm 1 mps 642 mmHg 91%
    22:00 +19°C° 0 mm 1 mps 642 mmHg 91%
    23:00 +19°C° 0 mm 1 mps 642 mmHg 90%
    Show more